User: anonymous   Login
Location: Utrecht
(52.0830°N, 5.1330°E)
Time: 13:16:28
(UTC+01:00)
Language:

Cosmos 1092 Rocket - Orbit

View from above orbital plane
View from above orbital plane
View from above satellite
View from above satellite

Ground track
Ground track

The orbit data is extracted from the following two-line orbital elements,

1 11327U 79030B   17324.96586969 -.00000015 +00000-0 -31120-4 0  9997
2 11327 082.9497 179.4555 0028834 100.0673 010.4386 13.76971997940502
Epoch (UTC): 20 November 2017 23:10:51
Eccentricity: 0.0028834
inclination: 82.9497°
perigee height: 953 km
apogee height: 996 km
right ascension of ascending node: 179.4555°
argument of perigee: 100.0673°
revolutions per day: 13.76971997
mean anomaly at epoch: 10.4386°
orbit number at epoch: 94050

The dashed part of the orbit path shows where the satellite is in the earth's shadow,  

DLR